Home   Weather   Truro   Past weeks

Flag for United Kingdom Past Weather in Truro, England, United Kingdom — Yesterday and Last 2 Weeks

Now
34 °F

Fog.


Feels Like: 27 °F
Forecast: 38 / 50 °F
Wind: 8 mph from Northeast

Location: Culdrose

Current Time: Jan 23, 2017 at 8:56:38 am

Latest Report: Jan 23, 2017 at 7:50 am


Visibility: 4 mi

Pressure: 30.33 "Hg

Humidity: 100%

Dew Point: 34 °F

Location of TruroLocation

Past Weather in Truro — Graph

°F

Truro Temperature Yesterday

Maximum temperature yesterday: 48 °F (at 12:50 pm)
Minimum temperature yesterday: 36 °F (at 7:50 pm)
Average temperature yesterday: 42 °F

High & Low Weather Summary for the Past Weeks

 TemperatureHumidityPressure
High52 °F (Jan 8, 11:50 am)100% (Jan 8, 3:50 pm)30.63 "Hg (Jan 8, 3:50 pm)
Low32 °F (Jan 23, 1:50 am)46% (Jan 19, 11:50 am)29.56 "Hg (Jan 12, 12:50 pm)
Average44 °F81%30.27 "Hg
* Reported Jan 8 6:50 am — Jan 23 6:50 am, Truro, Weather by CustomWeather, © 2017

Note: Actual official high and low records may vary slightly from our data, if they occured in-between our weather recording intervals... More about our weather records

Advertising

Truro Weather History for the Previous 24 Hours

Scroll right to see more
 ConditionsComfort  
Time TempWeatherWind HumidityBarometerVisibility
6:50 am
Mon, Jan 23
32 °FFog.8 mph100%30.33 "Hg3 mi
5:50 am32 °FFog.8 mph100%30.30 "Hg3 mi
4:50 am34 °FClear.7 mph100%30.30 "Hg10 mi
3:50 am32 °FFog.7 mph100%30.30 "HgN/A
2:50 am32 °FClear.7 mph100%30.30 "Hg10 mi
1:50 am32 °FClear.7 mph100%30.30 "Hg10 mi
12:50 am34 °FPassing clouds.7 mph93%30.33 "Hg3 mi
11:50 pm
Sun, Jan 22
36 °FPassing clouds.5 mph100%30.33 "HgN/A
10:50 pm36 °FPassing clouds.6 mph93%30.30 "Hg5 mi
9:50 pm37 °FPartly cloudy.7 mph93%30.30 "HgN/A
8:50 pm37 °FPassing clouds.7 mph93%30.30 "Hg4 mi
7:50 pm36 °FPassing clouds.8 mph100%30.27 "HgN/A
6:50 pm37 °FPassing clouds.7 mph93%30.27 "Hg3 mi
5:50 pm37 °FPassing clouds.5 mph93%30.27 "HgN/A
4:50 pm41 °FScattered clouds.2 mph93%30.24 "HgN/A
3:50 pm46 °FScattered clouds.6 mph76%30.24 "HgN/A
2:50 pm45 °FPartly sunny.10 mph93%30.24 "Hg2 mi
1:50 pm48 °FBroken clouds.2 mph76%30.24 "HgN/A
12:50 pm48 °FBroken clouds.5 mph82%30.24 "HgN/A
11:50 am45 °FPartly sunny.5 mph87%30.24 "HgN/A
10:50 am45 °FSprinkles. Partly sunny.7 mph81%30.24 "Hg3 mi
9:50 am43 °FSprinkles. Partly sunny.10 mph87%30.24 "HgN/A
8:50 am43 °FPartly sunny.13 mph81%30.21 "HgN/A
Weather by CustomWeather, © 2017

See weather overviewHow to use our weather pages